Flag for Vatican City State Weather past 2 weeks in Vatican City, Vatican City State

Now
36 °F

Clear.


Feels Like: 32 °F
Forecast: 36 / 49 °F
Wind: 5 mph from Northeast

Location: Rome / Ciampino

Current Time: Jan 27, 2015 at 3:16:41 AM

Latest Report: Jan 27, 2015 at 2:45 AM


Visibility: 10 mi

Pressure: 30.01 "Hg

Humidity: 81%

Dew point: 30 °F

Location of Vatican CityLocation

Historic Weather in Vatican City — Graph

°F

Vatican City temperature yesterday

Maximum temperature yesterday: 54 °F (at 2:45 PM)
Minimum temperature yesterday: 37 °F (at 11:15 PM)
Average temperature yesterday: 45 °F

Past Weeks' High & Low Weather Summary

 TemperatureHumidityPressure
High63 °F (Jan 17, 11:15 AM)100% (Jan 13, 5:15 AM)30.48 "Hg (Jan 13, 5:15 AM)
Low34 °F (Jan 13, 6:15 AM)27% (Jan 12, 2:45 PM)29.45 "Hg (Jan 23, 5:15 AM)
Average48 °F77%29.96 "Hg
* Reported Jan 12 1:15 AM — Jan 27 1:45 AM, Vatican City, Weather by CustomWeather, © 2014

Note: Actual official high and low records may vary slightly from our data, if they occured in-between our weather recording intervals... More about our weather records

Advertising

Vatican City weather history for previous 24 hours

 ConditionsComfort  
Time TempWeatherWind HumidityBarometerVisibility
1:45 AM
Jan 27
36 °FClear.3 mph81%30.04 "Hg10 mi
1:15 AM36 °FClear.3 mph81%30.04 "Hg10 mi
12:15 AM37 °FClear.5 mph75%30.04 "Hg10 mi
11:45 PM
Jan 26
37 °FClear.5 mph75%30.04 "Hg10 mi
11:15 PM37 °FClear.5 mph75%30.04 "Hg10 mi
10:45 PM39 °FClear.3 mph70%30.04 "Hg10 mi
10:15 PM39 °FClear.3 mph65%30.04 "Hg10 mi
9:45 PM39 °FClear.3 mph70%30.04 "Hg10 mi
9:15 PM41 °FClear.6 mph66%30.04 "Hg10 mi
8:45 PM41 °FClear.7 mph66%30.04 "Hg10 mi
8:15 PM43 °FClear.6 mph61%30.04 "Hg10 mi
7:45 PM43 °FClear.5 mph61%30.04 "Hg10 mi
7:15 PM45 °FClear.3 mph57%30.04 "Hg10 mi
6:45 PM46 °FPassing clouds.8 mph53%30.01 "HgN/A
6:15 PM46 °FClear.9 mph53%30.01 "Hg10 mi
5:45 PM48 °FClear.8 mph46%30.01 "Hg10 mi
5:15 PM50 °FPassing clouds.6 mph40%29.98 "HgN/A
4:45 PM52 °FPassing clouds.9 mph41%29.98 "HgN/A
4:15 PM52 °FPassing clouds.7 mph38%29.98 "HgN/A
3:45 PM54 °FPassing clouds.5 mph38%29.98 "HgN/A
3:15 PM54 °FPassing clouds.5 mph41%30.01 "HgN/A
2:45 PM54 °FPassing clouds.7 mph41%30.01 "HgN/A
2:15 PM52 °FPassing clouds.6 mph41%30.01 "HgN/A
1:45 PM52 °FPassing clouds.7 mph41%30.01 "HgN/A
1:15 PM52 °FPassing clouds.7 mph44%30.04 "HgN/A
12:45 PM50 °FPassing clouds.7 mph47%30.04 "HgN/A
12:15 PM48 °FScattered clouds.8 mph58%30.04 "HgN/A
11:45 AM46 °FScattered clouds.9 mph62%30.04 "HgN/A
11:15 AM46 °FScattered clouds.9 mph62%30.04 "HgN/A
10:45 AM46 °FScattered clouds.8 mph62%30.04 "HgN/A
10:15 AM45 °FScattered clouds.7 mph66%30.04 "HgN/A
9:45 AM45 °FScattered clouds.6 mph61%30.04 "HgN/A
9:15 AM45 °FScattered clouds.7 mph61%30.01 "HgN/A
8:45 AM45 °FScattered clouds.6 mph61%30.01 "HgN/A
8:15 AM43 °FScattered clouds.6 mph66%30.01 "HgN/A
7:45 AM43 °FScattered clouds.2 mph66%30.01 "HgN/A
7:15 AM43 °FPassing clouds.2 mph66%29.98 "HgN/A
6:45 AM43 °FPassing clouds.7 mph61%29.98 "HgN/A
6:15 AM43 °FPassing clouds.7 mph66%29.98 "HgN/A
5:45 AM45 °FPassing clouds.6 mph61%29.98 "HgN/A
5:15 AM43 °FPassing clouds.5 mph66%29.98 "HgN/A
4:45 AM43 °FPassing clouds.3 mph66%29.98 "HgN/A
4:15 AM43 °FPassing clouds.2 mph66%29.95 "HgN/A
3:45 AM43 °FPassing clouds.5 mph66%29.95 "HgN/A
3:15 AM43 °FPassing clouds.1 mph61%29.95 "HgN/A
Weather by CustomWeather, © 2014

See weather overviewHow to use our weather pages